EW6329 Weather Reports


Display with metric or nautical units.
time (UTC)temp
F
wind
direction
speed
MPH
gust
MPH
rain 1hr
in
rain 24hr
in
rain mn
in
humidity
%
barometer
mb
20260510174555 79 336 0.0 1.0 0.00 0.00 0.00 62 1013.8
20260510173005 80 328 0.0 2.0 0.00 0.00 0.00 54 1014.0
20260510171518 78 328 0.0 2.0 0.00 0.00 0.00 54 1014.3
20260510170031 78 329 0.0 2.0 0.00 0.00 0.00 57 1014.4
20260510164545 77 312 0.0 2.0 0.00 0.00 0.00 67 1014.3
20260510163057 77 312 0.0 1.0 0.00 0.00 0.00 65 1014.4
20260510161506 76 310 0.0 2.0 0.00 0.00 0.00 69 1014.6
20260510160022 75 310 0.0 2.0 0.00 0.00 0.00 70 1014.5
20260510154529 75 311 0.0 2.0 0.00 0.00 0.00 73 1014.4
20260510153041 74 311 0.0 2.0 0.00 0.00 0.00 74 1014.3
20260510151556 73 320 0.0 2.0 0.00 0.00 0.00 77 1014.3
20260510150004 73 320 0.0 2.0 0.00 0.00 0.00 78 1014.3
20260510144521 72 320 0.0 2.0 0.00 0.00 0.00 80 1014.4
20260510143026 71 320 0.0 2.0 0.00 0.00 0.00 82 1014.4
20260510141540 70 64 0.0 2.0 0.00 0.00 0.00 83 1014.2
20260510140056 69 64 0.0 2.0 0.00 0.00 0.00 85 1014.0
20260510134502 69 113 0.0 2.0 0.00 0.00 0.00 85 1013.9
20260510133016 68 113 0.0 2.0 0.00 0.00 0.00 87 1014.1
20260510131526 68 113 0.0 2.0 0.00 0.00 0.00 87 1013.8
20260510130041 67 113 0.0 2.0 0.00 0.00 0.00 89 1013.8
20260510124601 66 112 0.0 2.0 0.00 0.00 0.00 91 1013.7
20260510123006 65 112 0.0 2.0 0.00 0.00 0.00 93 1013.6
20260510121512 64 112 0.0 2.0 0.00 0.00 0.00 93 1013.5
20260510120025 62 112 0.0 2.0 0.00 0.00 0.00 93 1013.5
20260510114542 61 112 0.0 0.0 0.00 0.00 0.00 92 1013.4
20260510113052 61 112 0.0 0.0 0.00 0.00 0.00 91 1013.3
20260510111501 61 112 0.0 1.0 0.00 0.00 0.00 91 1012.9
20260510110015 60 126 0.0 0.0 0.00 0.00 0.00 90 1012.8
20260510104534 60 126 0.0 0.0 0.00 0.00 0.00 88 1012.4
20260510103050 60 126 0.0 0.0 0.00 0.00 0.00 87 1012.3
20260510101605 60 126 0.0 0.0 0.00 0.00 0.00 86 1012.2
20260510100005 61 126 0.0 0.0 0.00 0.00 0.00 82 1012.1
20260510094533 61 126 0.0 0.0 0.00 0.00 0.00 82 1012.0
20260510093031 62 126 0.0 0.0 0.00 0.00 0.00 82 1011.8
20260510091545 62 126 0.0 0.0 0.00 0.00 0.00 81 1011.5
20260510090058 62 126 0.0 0.0 0.00 0.00 0.00 80 1011.3
20260510084508 63 126 0.0 0.0 0.00 0.00 0.00 81 1011.3
20260510083020 63 126 0.0 0.0 0.00 0.00 0.00 84 1011.4
20260510081539 63 126 0.0 0.0 0.00 0.00 0.00 82 1011.2
20260510080048 63 126 0.0 0.0 0.00 0.00 0.00 83 1011.2
20260510074602 62 126 0.0 2.0 0.00 0.00 0.00 78 1011.1
20260510073011 62 126 0.0 0.0 0.00 0.00 0.00 77 1011.2
20260510071524 62 126 0.0 0.0 0.00 0.00 0.00 75 1011.1
20260510070045 62 126 0.0 0.0 0.00 0.00 0.00 74 1011.1
20260510064553 62 126 0.0 0.0 0.00 0.00 0.00 72 1011.2
20260510063002 61 126 0.0 0.0 0.00 0.00 0.00 70 1011.0
20260510061522 61 126 0.0 0.0 0.00 0.00 0.00 74 1010.8
20260510060026 61 126 0.0 0.0 0.00 0.00 0.00 75 1010.7
20260510054555 61 126 0.0 1.0 0.00 0.00 0.00 74 1010.6
20260510053054 62 126 0.0 0.0 0.00 0.00 0.00 74 1010.6
20260510051514 62 126 0.0 0.0 0.00 0.00 0.00 72 1010.7
20260510050017 63 126 0.0 1.0 0.00 0.00 0.00 69 1010.6
20260510044535 63 126 0.0 0.0 0.00 0.00 0.00 69 1010.7
20260510043044 63 126 0.0 0.0 0.00 0.00 0.00 71 1010.6
20260510041634 63 126 0.0 2.0 0.00 0.00 0.00 68 1010.6
20260510040006 64 126 0.0 0.0 0.00 0.00 0.00 68 1010.7
20260510034520 64 126 0.0 2.0 0.00 0.00 0.00 65 1010.6
20260510033033 65 126 0.0 1.0 0.00 0.00 0.00 64 1010.7
20260510031553 66 126 0.0 0.0 0.00 0.00 0.00 63 1010.7
20260510030100 67 126 0.0 0.0 0.00 0.00 0.00 61 1010.7
20260510024510 68 126 0.0 0.0 0.00 0.00 0.00 62 1010.6
20260510023020 68 126 0.0 0.0 0.00 0.00 0.00 58 1010.5
20260510021533 69 126 0.0 0.0 0.00 0.00 0.00 55 1010.2
20260510020046 70 126 0.0 0.0 0.00 0.00 0.00 52 1010.0
20260510014615 71 126 0.0 0.0 0.00 0.00 0.00 51 1009.8
20260510013010 72 126 0.0 0.0 0.00 0.00 0.00 50 1009.5
20260510011523 73 126 0.0 0.0 0.00 0.00 0.00 49 1009.3
20260510010036 73 126 0.0 0.0 0.00 0.00 0.00 49 1009.1
20260510004550 73 126 0.0 0.0 0.00 0.00 0.00 48 1009.0
20260510003103 73 126 0.0 0.0 0.00 0.00 0.00 48 1008.7
20260510001513 74 131 0.0 0.0 0.00 0.00 0.00 45 1008.6
20260510000026 74 131 0.0 0.0 0.00 0.00 0.00 46 1008.4
20260509234539 75 131 0.0 0.0 0.00 0.00 0.00 46 1008.3
20260509233053 75 126 0.0 0.0 0.00 0.00 0.00 45 1008.2
20260509231502 76 323 0.0 0.0 0.00 0.00 0.00 43 1008.3
20260509230015 76 323 0.0 0.0 0.00 0.00 0.00 41 1008.1
20260509224529 76 323 0.0 0.0 0.00 0.00 0.00 44 1007.9
20260509223046 77 323 0.0 1.0 0.00 0.00 0.00 43 1008.0
20260509221555 79 323 0.0 2.0 0.00 0.00 0.00 43 1008.1
20260509220007 80 323 0.0 2.0 0.00 0.00 0.00 36 1008.2
20260509214518 78 323 0.0 0.0 0.00 0.00 0.00 39 1008.2
20260509213032 77 323 0.0 1.0 0.00 0.00 0.00 41 1008.3
20260509211553 77 323 0.0 2.0 0.00 0.00 0.00 48 1008.3
20260509210108 77 323 0.0 2.0 0.00 0.00 0.00 46 1008.4
20260509204508 79 323 0.0 2.0 0.00 0.00 0.00 38 1008.5
20260509203024 79 323 0.0 2.0 0.00 0.00 0.00 40 1008.4
20260509201535 79 318 0.0 2.0 0.00 0.00 0.00 39 1008.5
20260509200050 78 318 0.0 2.0 0.00 0.00 0.00 44 1008.6
20260509194558 78 317 0.0 2.0 0.00 0.00 0.00 45 1008.8
20260509193009 78 317 0.0 1.0 0.00 0.00 0.00 42 1008.7
20260509191525 78 317 0.0 2.0 0.00 0.00 0.00 44 1008.8
20260509190040 78 317 0.0 2.0 0.00 0.00 0.00 39 1008.8
20260509184548 78 317 0.0 3.0 0.00 0.00 0.00 42 1009.0
20260509183102 77 312 0.0 2.0 0.00 0.00 0.00 42 1009.0
20260509181511 77 307 0.0 3.0 0.00 0.00 0.00 44 1009.1
20260509180026 77 309 0.0 2.0 0.00 0.00 0.00 43 1009.3